FENGYUN 1C DEB, 36152

Orbit data source: Space-Track

FENGYUN 1C DEB, 36152 is space debris in SSO originally from a launch on Mon, 10 May 1999 UTC launched from the Taiyaun Space Center, China (TSC). Fengyun 1C debris stems from the Chinese weather satellite Fengyun-1C, which was intentionally destroyed by a Chinese anti-satellite missile in 2007. This event dramatically increased the amount of space debris, with thousands of trackable fragments posing hazards to satellites and human spaceflight. The Fengyun 1C debris cloud has become a focal point in discussions about space sustainability and the need for international regulations to prevent the creation of new debris.

Loading next visibility...
Identifier
36152, 1999-025DRZ
Orbit
SSO
Country
Flag of CNCN / PRC
Related business
Manufacturer
Unknown
Mission
Spacecraft
Bus & Motor
Unknown
Mass
Unknown
Launch date (UTC)
1999-05-10 (27 years ago)
Launch vehicle
Unknown
Launch site
Taiyaun Space Center, China (TSC)
Object type
Payload
Rocket body
Debris
Shape & HBR
Unknown shape, 0.1 m
Radar Cross Section
Small (<0.1 m²)

Expand to show TLE details & history
Last TLE update: 17 hours ago

TLE from 17 hours ago
0 FENGYUN 1C DEB
1 36152U 99025DRZ 26166.33366138  .00001540  00000-0  76103-3 0  9996
2 36152  98.7397 208.3246 0055207  45.5940 314.9736 14.18024912667726
Epoch: 2026-06-15T08:00Z
TLE epoch observation values (Epoch: 2026-06-15T08:00:28.343Z)
Latitude
0.00006°
Longitude
-175.41505°
Altitude
806.922 km
Speed
7.464 km/s
True Right ascension
13h 53m 17s
True Declination
0° 00' 00"
Sunlit
Object was in full shadow at epoch
Visualization orbit readout
Latitude
Unknown
Longitude
Unknown
Altitude
Unknown
Speed
Unknown
Apparent Right ascension
Unknown
Apparent Declination
Unknown
Sunlit
N/A
Visualization observer readout
Local Sidereal Time
11:47:13
Azimuth
Unknown
Elevation
Unknown
Doppler factor
Unknown
Orbital elements
Apogee altitude
868.992 km
Perigee altitude
789.413 km
Semi-major axis
7,207.34 km
Eccentricity
0.00552
Inclination
98.7397°
RAAN
208.3246°
Arg. of periapsis
45.594°
True anomaly
314.52387°
Mean anomaly
314.9736°
Eccentric anomaly
314.74896°
Mean motion
3.54716 °/min
Orbital period
101.49 mins
BSTAR
0.00076103
Loading maneuver chart data...
Computing Atmospheric mass density...

Documentation

Showing up to 5 results
|